Location: Rounton
(54.4000°N, 1.3500°W)
Time: 14:09:19
(UTC+00:00)

Transit 4A - Pass Details

Date: 01 December 2021
Orbit: 864 x 981 km, 66.8° (Epoch: 18 January)

Event Time Altitude Azimuth Distance (km) Brightness Sun altitude
Rises 21:25:13 0° 235° (SW) 3,473 - -47.1°
Reaches altitude 10° 21:27:42 10° 239° (WSW) 2,551 - -47.4°
Maximum altitude 21:33:33 61° 319° (NW) 1,030 - -48.1°
Drops below altitude 10° 21:39:37 10° 40° (NE) 2,641 - -48.8°
Sets 21:42:15 0° 44° (NE) 3,605 - -49.1°
